Location: Mauries
(43.6188°N, 0.3322°W)
Time: 20:14:47
(UTC+00:00)

Cosmos 2082 Rocket - Pass Details

Date: 14 January 2026
Orbit: 832 x 853 km, 71.0° (Epoch: 11 February)

Event Time Altitude Azimuth Distance (km) Brightness Sun altitude
Exits shadow 06:50:42 - 332° (NNW) 3,296 4.8 -7.6°
Reaches altitude 10° 06:52:52 10° 329° (NNW) 2,471 4.2 -7.2°
Maximum altitude 06:58:28 64° 250° (WSW) 937 2.3 -6.3°
Drops below altitude 10° 07:04:04 10° 170° (S) 2,468 5.2 -5.4°
Sets 07:06:32 0° 167° (SSE) 3,402 6.0 -5.0°
